Hourly Data Report for October 11, 2016

All times are specified in Local Standard Time (LST). Add 1 hour to adjust for Daylight Saving Time where and when it is observed.

WINNIPEG A CS
MANITOBA

49°55'00.000" N
97°14'58.000" W
238.70 m
502S001
71849
XWG

Download Data

Hourly Data (October 2016)
Hourly Data Report for October 11, 2016
Temp Definition
°C
Dew Point Temp Definition
°C
Rel Hum Definition
%
Wind Dir Definition
10's deg

Wind Spd Definition
km/h
Visibility Definition
km
Stn Press Definition
kPa
Hmdx Definition


Wind Chill Definition


Weather Definition


TIME
00:00 3.3 2.3 93 34 23   98.90     LegendNANA
01:00 3.3 2.2 93 35 16   98.91     LegendNANA
02:00 3.3 2.3 93 35 20   98.93     LegendNANA
03:00 2.9 2.5 97 35 20   98.96     LegendNANA
04:00 3.0 2.3 95 33 21   99.04     LegendNANA
05:00 2.9 2.3 96 34 17   99.08     LegendNANA
06:00 2.7 2.1 95 34 21   99.06     LegendNANA
07:00 2.5 1.7 94 35 22   99.04     LegendNANA
08:00 2.7 1.6 93 36 22   99.05     LegendNANA
09:00 3.1 1.6 90 35 19   99.10     LegendNANA
10:00 4.0 1.9 86 36 23   99.10     LegendNANA
11:00 4.7 1.7 81 1 28   99.10     LegendNANA
12:00 4.7 1.4 79 1 26   99.12     LegendNANA
13:00 5.1 1.0 75 1 21   99.14     LegendNANA
14:00 5.1 0.5 72 36 20   99.09     LegendNANA
15:00 4.9 0.0 71 35 20   99.06     LegendNANA
16:00 4.7 -0.1 71 36 20   99.10     LegendNANA
17:00 3.8 0.3 78 34 20   99.14     LegendNANA
18:00 3.4 0.1 79 34 14   99.12     LegendNANA
19:00 1.4 -0.7 86 34 11   99.13     LegendNANA
20:00 1.6 -0.2 88 32 10   99.19     LegendNANA
21:00 0.2 -1.0 92 32 8   99.19     LegendNANA
22:00 0.1 -0.2 98 29 13   99.20     LegendNANA
23:00 0.8 -0.1 94 30 10   99.22     LegendNANA

Notes on Data Quality.

Legend

  • E = Estimated
  • M = Missing
  • NA = Not Available
  • ‡ = Partner data that is not subject to review by the National Climate Archives
Date modified: